Simultaneous Nadir Overpasses (SNOs) Predictions

Prediction of SNOs between FY3D and NOAA-19 Satellite Orbit:

Table of predicted SNOs for the next 14.0 days since TLE Epoch: 12/12/2020
Index Date (FY3D) Time (FY3D) Lat,Lon (FY3D) SZA (FY3D ) Date (NOAA-19) Time (NOAA-19) Lat,Lon (NOAA-19) SZA (NOAA-19 ) Distance(km) Time Diff (sec)
1 12/23/2020 06:59:17 -78.90,-132.97 76.52 12/23/2020 06:58:09 -78.93,-132.91 76.48 3.16 68
2 12/23/2020 07:50:02 78.91, 34.28 103.50 12/23/2020 07:49:10 78.91, 34.21 103.52 1.48 52
3 12/23/2020 08:40:47 -78.94,-158.58 76.47 12/23/2020 08:40:10 -78.91,-158.55 76.48 3.18 37
4 12/23/2020 09:31:31 78.91, 8.91 103.50 12/23/2020 09:31:10 78.93, 8.83 103.52 2.33 21
5 12/23/2020 10:22:16 -78.94, 176.05 76.47 12/23/2020 10:22:10 -78.93, 176.07 76.48 1.50 6
6 12/23/2020 11:13:01 78.95, -16.71 103.55 12/23/2020 11:13:10 78.94, -16.55 103.53 3.40 9
7 12/23/2020 12:03:45 -78.94, 150.68 76.47 12/23/2020 12:04:10 -78.94, 150.68 76.48 0.21 25
8 12/23/2020 12:54:30 78.95, -42.08 103.55 12/23/2020 12:55:10 78.96, -41.93 103.53 3.26 40
9 12/23/2020 13:45:14 -78.94, 125.31 76.47 12/23/2020 13:46:10 -78.96, 125.30 76.48 1.86 56
10 12/23/2020 14:35:59 78.95, -67.45 103.55 12/23/2020 14:37:11 78.94, -67.57 103.53 2.76 72



Historial Predications of SNOs between FY3D and NOAA-19
